User: anonymous   Login
Location: Melbourne
(37.8170°S, 144.9670°E)
Time: 15:54:51
(UTC+10:00)
Language:

ADEOS Rocket - Orbit

View from above orbital plane
View from above orbital plane
View from above satellite
View from above satellite

Ground track
Ground track

The orbit data is extracted from the following two-line orbital elements,

1 24279U 96046C   16150.96961387 +.00000023 +00000-0 +73345-4 0  9992
2 24279 098.7007 137.3281 0299956 185.9233 195.8650 13.47049914972388
Epoch (UTC): 29 May 2016 23:16:14
Eccentricity: 0.0299956
inclination: 98.7007°
perigee height: 859 km
apogee height: 1307 km
right ascension of ascending node: 137.3281°
argument of perigee: 185.9233°
revolutions per day: 13.47049914
mean anomaly at epoch: 195.8650°
orbit number at epoch: 97238

The dashed part of the orbit path shows where the satellite is in the earth's shadow,  

DLR